User: anonymous   Login
Location: Scultetus-Sternwarte G�rlitz
(51.1356°N, 14.9514°E)
Time: 04:02:49
(UTC+02:00)
Language:

Iridium 3 - Orbit

View from above orbital plane
View from above orbital plane
View from above satellite
View from above satellite

Ground track
Ground track

The orbit data is extracted from the following two-line orbital elements,

1 25431U 98048A   15148.27999587  .00000220  00000-0  71563-4 0  9999
2 25431 086.3993 209.5531 0002165 091.9948 335.9147 14.34217805877980
Epoch (UTC): 28 May 2015 06:43:11
Eccentricity: 0.0002165
inclination: 86.3993°
perigee height: 776 km
apogee height: 779 km
right ascension of ascending node: 209.5531°
argument of perigee: 91.9948°
revolutions per day: 14.34217805
mean anomaly at epoch: 335.9147°
orbit number at epoch: 87798

The dashed part of the orbit path shows where the satellite is in the earth's shadow,  

DLR